Location: Kelowna
(49.8880°N, 119.4960°W)
Time: 13:18:13
(UTC-07:00)

Oscar 19 - Visible Passes

Search period start: 22 April 2024 00:00
Search period end: 02 May 2024 00:00
Orbit: 772 x 788 km, 98.9° (Epoch: 21 April)

Date Brightness Start Highest point End Pass type
(mag) Time Alt. Az. Time Alt. Az. Time Alt. Az.
22 Apr 13.8 04:30:52 10° ENE 04:32:20 11° E 04:33:47 10° E visible
24 Apr 13.3 05:03:14 10° NE 05:07:11 22° E 05:11:08 10° SE visible
25 Apr 13.7 04:32:36 10° ENE 04:34:17 11° E 04:35:59 10° ESE visible
28 Apr 13.7 04:34:21 10° ENE 04:36:14 12° E 04:38:07 10° ESE visible
01 May 13.6 04:36:06 10° ENE 04:38:10 12° E 04:40:13 10° ESE visible
